Location: hvezdarna zebrak
(49.8744°N, 13.8989°E)
Time: 04:05:35
(UTC+01:00)

ARIANE 6 FM1 Upper Stage - Visible Passes

Search period start: 06 March 2026 00:00
Search period end: 16 March 2026 00:00
Orbit: 523 x 607 km, 62.0° (Epoch: 5 March)

Date Brightness Start Highest point End Pass type
(mag) Time Alt. Az. Time Alt. Az. Time Alt. Az.
6 Mar 5.5 05:24:51 10° SSE 05:27:18 15° ESE 05:29:44 10° E visible
7 Mar 5.1 05:23:50 10° S 05:26:59 21° ESE 05:30:06 10° ENE visible
8 Mar 4.5 05:23:06 10° S 05:26:41 30° SE 05:30:13 10° ENE visible
9 Mar 3.8 05:22:32 10° SSW 05:26:25 41° SE 05:30:13 10° ENE visible
10 Mar 3.2 05:22:08 10° SSW 05:26:10 58° SE 05:30:07 10° NE visible
11 Mar 5.4 03:45:52 10° SE 03:47:34 12° ESE 03:49:15 10° E visible
11 Mar 2.7 05:21:50 10° SW 05:25:56 81° SE 05:29:58 10° NE visible
12 Mar 4.9 03:45:53 15° SE 03:47:10 17° ESE 03:49:52 10° ENE visible
12 Mar 2.6 05:21:54 12° SW 05:25:44 75° NW 05:29:45 10° NE visible
13 Mar 4.4 03:46:05 23° SE 03:46:48 24° ESE 03:50:04 10° ENE visible
13 Mar 2.8 05:22:06 14° WSW 05:25:33 56° NW 05:29:31 10° NE visible
14 Mar 3.9 03:46:10 32° SE 03:46:27 33° SE 03:50:06 10° ENE visible
14 Mar 3.1 05:22:10 14° WSW 05:25:23 43° NW 05:29:14 10° NE visible
15 Mar 3.3 03:46:09 46° SE 03:46:09 46° SE 03:50:01 10° NE visible
15 Mar 3.5 05:22:09 14° W 05:25:14 34° NNW 05:28:56 10° NE visible
